Weather History for RJAM - February, 2014

Change the Weather History Date:

Wednesday, February 19, 2014

  Actual Average Record
Temperature  
Mean Temperature 68 °F -  
Max Temperature 72 °F - - ()
Min Temperature 62 °F - - ()
Cooling Degree Days 2    
Growing Degree Days 18 (Base 50)    
Moisture  
Dew Point 54 °F    
Average Humidity 54    
Maximum Humidity 77    
Minimum Humidity 44    
Precipitation  
Precipitation 0.00 in - - ()
Sea Level Pressure  
Sea Level Pressure 29.97 in    
Wind  
Wind Speed 5 mph ()    
Max Wind Speed 12 mph    
Max Gust Speed -    
T = Trace of Precipitation, MM = Missing Value Source: Averaged Metar Reports

Daily Weather History Graph

Daily Weather History Graph

Search for Another Location

Airport or City:

Trip Planner

Search our weather history database for the weather conditions in past years. The results will help you decide how hot, cold, wet, or windy it might be!

Date:

Astronomy

Feb. 19, 2014 Rise Set
Actual Time 6:15 AM ChST 5:41 PM ChST
Civil Twilight 5:52 AM ChST 6:04 PM ChST
Nautical Twilight 5:25 AM ChST 6:30 PM ChST
Astronomical Twilight 4:59 AM ChST 6:57 PM ChST
Moon 9:21 PM ChST (2/19) 8:26 AM ChST (2/19)
Length of Visible Light 12h 12m
Length of Day
11h 25m
Waning Gibbous, 85% of the Moon is Illuminated
Feb 19
Waning Gibbous
Feb 23
Last Quarter
Mar 1
New
Mar 8
First Quarter
Mar 17
Full

Hourly Weather History & Observations

Time (ChST) Temp. Dew Point Humidity Pressure Visibility Wind Dir Wind Speed Gust Speed Precip Events Conditions
12:00 AM 66 °F 51 °F 49% 30.02 in - NE 11.5 mph - -  
1:00 AM 66 °F 52 °F 50% 30.00 in - ENE 11.5 mph - -  
2:00 AM 66 °F 52 °F 50% 29.98 in - ENE 6.9 mph - -  
3:00 AM 66 °F 51 °F 48% 29.97 in - ENE 6.9 mph - -  
4:00 AM 65 °F 51 °F 51% 29.95 in - ENE 5.8 mph - -  
5:00 AM 65 °F 51 °F 52% 29.95 in - ENE 4.6 mph - -  
6:00 AM 66 °F 51 °F 49% 29.97 in - East 4.6 mph - -  
7:00 AM 66 °F 53 °F 53% 29.99 in - ENE 5.8 mph - -  
8:00 AM 68 °F 53 °F 47% 30.01 in - East 5.8 mph - -  
9:00 AM 68 °F 52 °F 47% 30.02 in - East 5.8 mph - -  
10:00 AM 70 °F 54 °F 46% 30.00 in - East 4.6 mph - -  
11:00 AM 70 °F 53 °F 44% 29.97 in - ESE 5.8 mph - -  
12:00 PM 71 °F 55 °F 47% 29.95 in - ESE 4.6 mph - -  
1:00 PM 70 °F 54 °F 47% 29.93 in - East 3.5 mph - -  
2:00 PM 69 °F 54 °F 49% 29.92 in - ESE 4.6 mph - -  
3:00 PM 69 °F 54 °F 49% 29.91 in - ESE 2.3 mph - -  
4:00 PM 69 °F 54 °F 50% 29.92 in - ESE 2.3 mph - -  
5:00 PM 68 °F 56 °F 57% 29.94 in - SW 2.3 mph - -  
6:00 PM 66 °F 56 °F 62% 29.96 in - SSW 2.3 mph - -  
7:00 PM 65 °F 56 °F 66% 29.98 in - SSW 3.5 mph - -  
8:00 PM 65 °F 57 °F 69% 29.99 in - SW 1.2 mph - -  
9:00 PM 63 °F 56 °F 71% 30.00 in - South 1.2 mph - -  
10:00 PM 65 °F 57 °F 69% 30.00 in - South 1.2 mph - -  
11:00 PM 62 °F 57 °F 77% 30.00 in - South 2.3 mph - -